NOAA 16 DEB

Satellite information

Favourite Embed

Satellite Type and Status

DEBRISIN ORBIT

Key statistics

Satellite NOAA 16 DEB at a glance.

Uptime

9215

Days in orbit

Revolutions

≈ 14.4

Per day

Orbit

SSO

Sun Synchronous Orbit

Inclination

99.2

Latest

Satellite identification and parameters

Extended collection of information and parameters for NOAA 16 DEB.

Object identification

Identified? True

Debris? True

Object name: NOAA 16 DEB

International designator: 2000-055AB

Object number (NORAD): 41068

Object ID (CCSDS): 41068

Country: UNITED STATES OF AMERICA (US)

Current information (Y/N): Y

RCS size: SMALL

Orbital parameters

Period: 99.883 minutes

Inclination: 99.15 deg

SMA: 7131.063 km

Apoapsis: 854.067 km

Periapsis: 651.789 km

RAAN: 308.6216 deg

Eccentricy: 0.01418291

Argument of periapsis: 313.5079 deg

Mean anomaly: 45.4391 deg

Mean motion: 14.41688195 rev/day

Mean motion (dot): 0.00004596 rev/day2

B* drag term: 0.0012650113 1/REarth

Two-line elements (TLE)

Creation date: Dec. 14, 2025, 3:07 a.m.

Reference frame: TEME

Reference center: EARTH

Epoch: Dec. 13, 2025, 2:59 p.m. UTC

TLE line 0: 0 NOAA 16 DEB

TLE line 1: 1 41068U 00055AB 25347.62497747 .00004596 00000-0 12650-2 0 9996

TLE line 2: 2 41068 99.1500 308.6216 0141829 313.5079 45.4391 14.41688195525391

Live tracking on map

Real-time ground track for satellite NOAA 16 DEB.

In-orbit conjunctions

A list of the most updated potential collisions computed for object NOAA 16 DEB.

Target Orbit TCA Probability of collision Miss distance Type
FENGYUN 1C DEB SSO 2025-01-16 18:45:48 0.0001447285 203.0 (m) DEBRIS
DELTA 2 R/B(1) LEO 2025-01-02 13:52:51 0.0002191056 431.0 (m) ROCKET BODY
FENGYUN 1C DEB SSO 2024-09-22 02:19:17 0.0001089664 206.0 (m) DEBRIS

Associated space launch

The NOAA K, L and M POES satellites begin the fifth generation of improved environmental monitoring in support of NOAA missions. The instrument payload has significant improvements and additions/deletions. The instrument changes have effected the spacecraft subsystems and data formats.

NOAA 16 DEB was lifted into orbit during the mission ‘Titan II SLV | NOAA 16’, on board a Titan II SLV space rocket.

The launch took place on Sept. 21, 2000, 10:22 a.m. from Space Launch Complex 4W.

For more information about the launch, click the button.

Launch to space Titan II SLV | NOAA 16
Titan II SLV | NOAA 16

Agency: N/A

Status: Launch Successful

Launch date: Sept. 21, 2000, 10:22 a.m. UTC

Rocket: Titan II SLV

Launch pad: Space Launch Complex 4W

Location: Vandenberg SFB, CA, USA

...

Latest news about this satellite

There are no fresh news available about this satellite. Check back as we update our databases every day.


Newsletter sign-up

Weekly statistics, charts and insights to help you stay on top of the space industry.